NUSAT-6 (HYPATIA) (46272 NORAD) Tracking and Keplerian Element Data

This shows tracking and keplerian element data for the satellite.

Feedback or suggestion? Click here.




ElementValue
Catalog46272
NameNUSAT-6 (HYPATIA)
Epoch Orbit330
Epoch Day268.93296448
Epoch Year2020
RAAN341.6365
Inclination97.4524
Eccentricity0.0008169
Argument of Perigee146.3879
Mean Anonmoly213.7884
Mean Motion15.16772153
Decay Rate0.00102154
L11 46272U 20061A 20268.93296448 .00102154 00000-0 51350-2 0 9992
L22 46272 97.4524 341.6365 0008169 146.3879 213.7884 15.16772153 3301

Live tracking and technical data element details for NUSAT-6 (HYPATIA) (NORAD 46272). NUSAT-6 (HYPATIA) can be tracked NOW for your location showing map with azimuth and elevation plus other details from your city location.

Track the satellite on the map from your city or location and see movement details for azimuth, elevation, latitude, longitude, range, height, and movement on the map or in text.







IsCatalogInMostPopularTable: catalog: 46272, numindb: 4
Update: records affected: 1



GetName: 46272 NUSAT-6 (HYPATIA)

Hit Count: updated at: Sat, 26 Sep 2020 14:29:23 GMT